Regional Weather Roundup
Issued by NWS

Home | Current Version | Previous Version | Graphics & Text | Print | Product List | Glossary On
Versions: 1 2 3 4 5 6 7 8 9 10 11 12 13 14 15 16 17 18 19 20 21 22 23 24 25 26 27 28 29 30 31 32 33 34 35 36 37 38 39 40 41 42 43 44 45 46 47 48 49 50
000
ASUS43 KIND 241509
RWRIN

WEATHER ROUNDUP FOR INDIANA
NATIONAL WEATHER SERVICE INDIANAPOLIS IN
1100 AM EDT FRI MAR 24 2017

NOTE: "FAIR" INDICATES FEW OR NO CLOUDS BELOW 12,000 FEET WITH NO
SIGNIFICANT WEATHER AND/OR OBSTRUCTIONS TO VISIBILITY.

* - STATION DOES NOT REPORT WEATHER SUCH AS PRECIPITATION OR FOG.

+ - STATION NOT QUALITY CONTROLLED BY THE NATIONAL WEATHER SERVICE.
    USE DATA WITH CAUTION...ESPECIALLY DEWPOINT AND RELATIVE
    HUMIDITY OBSERVATIONS.

INZ001>003-010>013-019-020-241600-
NORTHWEST INDIANA

CITY           SKY/WX    TMP DP  RH WIND       PRES   REMARKS
GARY /AIRPORT/ PTSUNNY   64  46  52 S14G29    29.96S
KNOX *+        MOSUNNY   63  30  29 SW21G31   30.00S
LA PORTE +     CLOUDY    61  50  67 SW15G26   29.99F
MICHIGAN CITY+ CLOUDY    63  50  63 S17G24    29.98S
MONTICELLO +   SUNNY     65  51  62 S21G26    30.04S
RENSSELAER +   SUNNY     64  52  63 SW22G28   30.01F
VALPARAISO     CLOUDY    65  51  60 SW23G30   30.00S

$$

LMZ046-743>745-241600-
SOUTHERN LAKE MICHIGAN

STATION/POSITION TIME  TEMP    WIND        PRES    WAVE
                       AIR SEA DIR/SP/G            HT
                 (UTC) (F)     (DEG/KT/KT) (MB)    (FT)
BURNS HARBOR     1430   60     190/ 21/ 28 1014.9R
MICHIGAN CITY    1440   62     190/ 20/ 23   N/A

$$

INZ004-005-014>016-021>024-241600-
NORTH CENTRAL INDIANA

CITY           SKY/WX    TMP DP  RH WIND       PRES   REMARKS
ELKHART        CLOUDY    63  48  59 SW17G29   29.99F
GOSHEN         MOSUNNY   63  49  60 SW25G37   30.00F
LOGANSPORT +   SUNNY     63  52  67 SW16G25   30.07F
PERU/GRISSOM   MOSUNNY   63  53  70 SW20      30.05F
ROCHESTER +    SUNNY     64  52  63 SW16G26   30.04F
SOUTH BEND     CLOUDY    62  50  64 SW21G32   29.98F
WARSAW +       CLOUDY    63  50  63 SW15G22   30.02F

$$

INZ006>009-017-018-025>027-241600-
NORTHEAST INDIANA

CITY           SKY/WX    TMP DP  RH WIND       PRES   REMARKS
ANGOLA *+      SUNNY     61  52  72 SW17      30.01S
AUBURN +       SUNNY     61  46  59 SW16G22   30.05S
FORT WAYNE     CLOUDY    60  49  66 SW28G36   30.06F
HUNTINGTON +   SUNNY     61  49  65 SW16G26   30.06F
KENDALLVILLE + CLOUDY    61  50  65 SW24G30   30.02F

$$

INZ028-029-035-036-043>045-051>053-241600-
WEST CENTRAL INDIANA

CITY           SKY/WX    TMP DP  RH WIND       PRES   REMARKS
CRAWFORDSVL +  SUNNY     64  54  70 S15G29    30.10S
GREENCASTLE +  MOSUNNY   63  52  67 SW14G25   30.13R
LAFAYETTE      SUNNY     65  53  65 SW21G30   30.06F
TERRE HAUTE    SUNNY     64  53  67 S16G31    30.12S

$$

INZ030>032-037>040-046>048-054>057-064-065-241600-
CENTRAL INDIANA

CITY           SKY/WX    TMP DP  RH WIND       PRES   REMARKS
ANDERSON       SUNNY     59  48  67 S17G23    30.14F
CP ATTERBURY + CLOUDY    64  50  59 SW12G18   30.17S
COLUMBUS       SUNNY     61  50  67 S14G23    30.18R
FRANKFORT +    SUNNY     67  55  65 SW17G30   30.10F
GREENWOOD *+   PTSUNNY   62  52  68 S12       30.16S
INDIANAPOLIS   PTSUNNY   66  53  63 S14       30.13S
-EAGLE CREEK   PTSUNNY   65  53  65 SW17G26   30.13S
KOKOMO +       MOSUNNY   61  51  70 S15       30.09F
MARION +       MOSUNNY   59  48  67 SW22      30.11S
MT COMFORT *+  MOSUNNY   57  48  72 S12       30.15F
SHELBYVILLE    CLOUDY    61  48  62 S17       30.16S
ZIONSVILLE +   PTSUNNY   62  52  69 SW16      30.12F

$$

INZ033-034-041-042-049-050-058-059-241600-
EAST CENTRAL INDIANA

CITY           SKY/WX    TMP DP  RH WIND       PRES   REMARKS
MUNCIE         CLOUDY    62  48  60 SW16G30   30.11F
RICHMOND +     CLOUDY    54  46  76 S12       30.20S

$$

INZ060-061-067>069-081>083-085>088-241600-
SOUTHWEST INDIANA

CITY           SKY/WX    TMP DP  RH WIND       PRES   REMARKS
EVANSVILLE     SUNNY     68  55  63 SW22G29   30.18R
HUNTINGBURG *+ MOSUNNY   66  54  65 S22G30    30.19R
WASHINGTON +   SUNNY     65  52  62 MISG      30.17R

$$

INZ062-063-066-070>080-084-089>092-241600-
SOUTH CENTRAL AND SOUTHEAST INDIANA

CITY           SKY/WX    TMP DP  RH WIND       PRES   REMARKS
BEDFORD +      CLOUDY    66  52  59 SW18G25   30.18R
BLOOMINGTON    CLOUDY    66  52  60 SW17G28   30.16S
MADISON *+     CLOUDY    63  45  51 S17       30.24R
NORTH VERNON + CLOUDY    61  46  59 S16G23    30.20R
SEYMOUR +      MOSUNNY   64  50  59 SW13G21   30.19R

$$





USA.gov is the U.S. government's official web portal to all federal, state and local government web resources and services.